• In Portugal
  • List of Countries
  • For 7 days
  • Water Temperature
  • Satellite Maps
  • Weather Map
  • Weather Widgets
  • user-avatar
    Login

    Hourly Weather Borovec

    Today, 18 September, Tuesday

    Time Temperature Precipitation Wind Pressure Humidity
    00:00 +16°C° 0 mm 1 mps 716 mmHg 81%
    01:00 +16°C° 0 mm 1 mps 716 mmHg 82%
    02:00 +15°C° 0 mm 1 mps 715 mmHg 82%
    03:00 +15°C° 0 mm 1 mps 715 mmHg 83%
    04:00 +15°C° 0 mm 1 mps 715 mmHg 85%
    05:00 +14°C° 0 mm 1 mps 715 mmHg 86%
    06:00 +16°C° 0 mm 1 mps 715 mmHg 81%
    07:00 +18°C° 0 mm 1 mps 716 mmHg 75%
    08:00 +20°C° 0 mm 1 mps 716 mmHg 68%
    09:00 +22°C° 0 mm 1 mps 716 mmHg 61%
    10:00 +24°C° 0 mm 1 mps 716 mmHg 53%
    11:00 +26°C° 0 mm 1 mps 716 mmHg 46%
    12:00 +26°C° 0 mm 2 mps 716 mmHg 43%
    13:00 +27°C° 0 mm 2 mps 716 mmHg 40%
    14:00 +27°C° 0 mm 2 mps 716 mmHg 40%
    15:00 +27°C° 0 mm 2 mps 716 mmHg 41%
    16:00 +26°C° 0 mm 2 mps 715 mmHg 42%
    17:00 +26°C° 0 mm 2 mps 715 mmHg 44%
    18:00 +23°C° 0 mm 2 mps 715 mmHg 52%
    19:00 +20°C° 0 mm 2 mps 715 mmHg 61%
    20:00 +19°C° 0 mm 1 mps 715 mmHg 70%
    21:00 +18°C° 0 mm 1 mps 715 mmHg 72%
    22:00 +16°C° 0 mm 1 mps 715 mmHg 75%
    23:00 +16°C° 0 mm 1 mps 715 mmHg 77%

    Tomorrow, 19 September, Wednesday

    Time Temperature Precipitation Wind Pressure Humidity
    00:00 +15°C° 0 mm 1 mps 715 mmHg 79%
    01:00 +15°C° 0 mm 1 mps 715 mmHg 81%
    02:00 +14°C° 0 mm 1 mps 715 mmHg 82%
    03:00 +14°C° 0 mm 1 mps 715 mmHg 83%
    04:00 +14°C° 0 mm 1 mps 715 mmHg 83%
    05:00 +13°C° 0 mm 1 mps 715 mmHg 84%
    06:00 +15°C° 0 mm 1 mps 715 mmHg 77%
    07:00 +16°C° 0 mm 1 mps 716 mmHg 70%
    08:00 +19°C° 0 mm 1 mps 716 mmHg 63%
    09:00 +21°C° 0 mm 1 mps 716 mmHg 55%
    10:00 +23°C° 0 mm 2 mps 716 mmHg 47%
    11:00 +25°C° 0 mm 2 mps 716 mmHg 39%
    12:00 +26°C° 0 mm 2 mps 716 mmHg 35%
    13:00 +27°C° 0 mm 2 mps 716 mmHg 32%
    14:00 +28°C° 0 mm 3 mps 716 mmHg 29%
    15:00 +27°C° 0 mm 3 mps 715 mmHg 31%
    16:00 +27°C° 0 mm 3 mps 715 mmHg 32%
    17:00 +26°C° 0 mm 3 mps 714 mmHg 33%
    18:00 +23°C° 0 mm 2 mps 714 mmHg 40%
    19:00 +20°C° 0 mm 2 mps 714 mmHg 46%
    20:00 +18°C° 0 mm 1 mps 714 mmHg 52%
    21:00 +16°C° 0 mm 1 mps 715 mmHg 52%
    22:00 +16°C° 0 mm 1 mps 715 mmHg 53%
    23:00 +15°C° 0 mm 1 mps 715 mmHg 54%

    Day after tomorrow, 20 September, Thursday

    Time Temperature Precipitation Wind Pressure Humidity
    00:00 +15°C° 0 mm 1 mps 715 mmHg 55%
    01:00 +14°C° 0 mm 1 mps 715 mmHg 56%
    02:00 +14°C° 0 mm 1 mps 715 mmHg 56%
    03:00 +14°C° 0 mm 1 mps 714 mmHg 57%
    04:00 +13°C° 0 mm 1 mps 714 mmHg 58%
    05:00 +13°C° 0 mm 1 mps 714 mmHg 59%
    06:00 +15°C° 0 mm 1 mps 714 mmHg 55%
    07:00 +16°C° 0 mm 1 mps 715 mmHg 52%
    08:00 +19°C° 0 mm 1 mps 715 mmHg 48%
    09:00 +21°C° 0 mm 1 mps 715 mmHg 42%
    10:00 +23°C° 0 mm 2 mps 715 mmHg 36%
    11:00 +25°C° 0 mm 2 mps 715 mmHg 31%
    12:00 +26°C° 0 mm 2 mps 715 mmHg 28%
    13:00 +27°C° 0 mm 2 mps 715 mmHg 25%
    14:00 +28°C° 0 mm 2 mps 715 mmHg 22%
    15:00 +27°C° 0 mm 3 mps 714 mmHg 24%
    16:00 +27°C° 0 mm 3 mps 714 mmHg 25%
    17:00 +26°C° 0 mm 3 mps 714 mmHg 27%
    18:00 +23°C° 0 mm 2 mps 713 mmHg 32%
    19:00 +20°C° 0 mm 2 mps 713 mmHg 38%
    20:00 +18°C° 0 mm 1 mps 713 mmHg 43%
    21:00 +16°C° 0 mm 1 mps 713 mmHg 44%
    22:00 +16°C° 0 mm 1 mps 713 mmHg 45%
    23:00 +15°C° 0 mm 1 mps 713 mmHg 46%

    21 September, Friday

    Time Temperature Precipitation Wind Pressure Humidity
    00:00 +15°C° 0 mm 1 mps 713 mmHg 46%
    01:00 +14°C° 0 mm 1 mps 713 mmHg 47%
    02:00 +14°C° 0 mm 1 mps 713 mmHg 47%
    03:00 +14°C° 0 mm 1 mps 713 mmHg 48%
    04:00 +13°C° 0 mm 1 mps 713 mmHg 49%
    05:00 +13°C° 0 mm 1 mps 713 mmHg 50%
    06:00 +15°C° 0 mm 1 mps 713 mmHg 48%
    07:00 +16°C° 0 mm 1 mps 714 mmHg 46%
    08:00 +17°C° 0 mm 0 mps 714 mmHg 43%
    09:00 +21°C° 0 mm 1 mps 714 mmHg 39%
    10:00 +24°C° 0 mm 1 mps 714 mmHg 35%
    11:00 +26°C° 0 mm 2 mps 714 mmHg 31%
    12:00 +27°C° 0 mm 2 mps 714 mmHg 29%
    13:00 +28°C° 0 mm 2 mps 714 mmHg 27%
    14:00 +29°C° 0 mm 2 mps 713 mmHg 25%
    15:00 +28°C° 0 mm 2 mps 713 mmHg 27%
    16:00 +28°C° 0 mm 2 mps 713 mmHg 28%
    17:00 +27°C° 0 mm 1 mps 712 mmHg 30%
    18:00 +24°C° 0 mm 1 mps 712 mmHg 36%
    19:00 +22°C° 0 mm 1 mps 712 mmHg 42%
    20:00 +19°C° 0 mm 1 mps 712 mmHg 48%
    21:00 +19°C° 0 mm 1 mps 712 mmHg 49%
    22:00 +18°C° 0 mm 1 mps 712 mmHg 50%
    23:00 +16°C° 0 mm 1 mps 712 mmHg 51%

    22 September, Saturday

    Time Temperature Precipitation Wind Pressure Humidity
    00:00 +16°C° 0 mm 1 mps 712 mmHg 52%
    01:00 +16°C° 0 mm 1 mps 712 mmHg 52%
    02:00 +15°C° 0 mm 1 mps 712 mmHg 53%
    03:00 +15°C° 0 mm 1 mps 712 mmHg 54%
    04:00 +15°C° 0 mm 1 mps 711 mmHg 54%
    05:00 +15°C° 0 mm 1 mps 711 mmHg 55%
    06:00 +16°C° 0 mm 1 mps 712 mmHg 52%
    07:00 +19°C° 0 mm 1 mps 712 mmHg 48%
    08:00 +20°C° 0 mm 1 mps 712 mmHg 45%
    09:00 +23°C° 0 mm 1 mps 712 mmHg 39%
    10:00 +26°C° 0 mm 1 mps 713 mmHg 34%
    11:00 +29°C° 0 mm 1 mps 713 mmHg 28%
    12:00 +29°C° 0 mm 1 mps 713 mmHg 27%
    13:00 +30°C° 0 mm 1 mps 712 mmHg 26%
    14:00 +31°C° 0 mm 1 mps 712 mmHg 24%
    15:00 +30°C° 0 mm 1 mps 712 mmHg 27%
    16:00 +29°C° 0 mm 1 mps 711 mmHg 29%
    17:00 +29°C° 0 mm 1 mps 711 mmHg 31%
    18:00 +26°C° 0 mm 2 mps 712 mmHg 38%
    19:00 +24°C° 0 mm 2 mps 712 mmHg 45%
    20:00 +20°C° 0 mm 2 mps 713 mmHg 52%
    21:00 +18°C° 0 mm 2 mps 713 mmHg 57%
    22:00 +17°C° 0 mm 2 mps 713 mmHg 63%
    23:00 +15°C° 0 mm 2 mps 713 mmHg 68%

    23 September, Sunday

    Time Temperature Precipitation Wind Pressure Humidity
    00:00 +15°C° 0 mm 2 mps 713 mmHg 69%
    01:00 +14°C° 0 mm 2 mps 713 mmHg 70%
    02:00 +14°C° 0 mm 2 mps 713 mmHg 71%
    03:00 +13°C° 0 mm 2 mps 713 mmHg 72%
    04:00 +13°C° 0 mm 1 mps 713 mmHg 73%
    05:00 +13°C° 0 mm 1 mps 714 mmHg 74%
    06:00 +13°C° 0 mm 1 mps 714 mmHg 70%
    07:00 +14°C° 0 mm 1 mps 714 mmHg 67%
    08:00 +15°C° 0 mm 1 mps 715 mmHg 64%
    09:00 +18°C° 0 mm 1 mps 715 mmHg 58%
    10:00 +19°C° 0 mm 2 mps 715 mmHg 52%
    11:00 +21°C° 0 mm 2 mps 715 mmHg 46%
    12:00 +23°C° 0 mm 2 mps 715 mmHg 46%
    13:00 +23°C° 0 mm 2 mps 714 mmHg 46%
    14:00 +23°C° 0 mm 2 mps 714 mmHg 46%
    15:00 +23°C° 0 mm 2 mps 713 mmHg 46%
    16:00 +23°C° 0 mm 2 mps 713 mmHg 46%
    17:00 +23°C° 0 mm 1 mps 713 mmHg 46%
    18:00 +21°C° 0 mm 1 mps 713 mmHg 52%
    19:00 +19°C° 0 mm 1 mps 713 mmHg 59%
    20:00 +16°C° 0 mm 1 mps 712 mmHg 65%
    21:00 +16°C° 0 mm 1 mps 712 mmHg 66%
    22:00 +16°C° 0 mm 1 mps 712 mmHg 68%
    23:00 +15°C° 0 mm 1 mps 712 mmHg 70%
    Show more